Regional Weather Roundup
Issued by NWS

Home | Current Version | Previous Version | Graphics & Text | Print | Product List | Glossary On
Versions: 1 2 3 4 5 6 7 8 9 10 11 12 13 14 15 16 17 18 19 20 21 22 23 24 25 26 27 28 29 30 31 32 33 34 35 36 37 38 39 40 41 42 43 44 45 46 47 48 49 50
000
ASUS43 KMPX 021301
RWRMN
WEATHER ROUNDUP FOR MINNESOTA
NATIONAL WEATHER SERVICE TWIN CITIES/CHANHASSEN MN
800 AM CDT SUN AUG 02 2015


NOTE: "FAIR" INDICATES FEW OR NO CLOUDS BELOW 12,000 FEET WITH NO
SIGNIFICANT WEATHER AND/OR OBSTRUCTIONS TO VISIBILITY. N/A MEANS
CURRENT SKY AND/OR WEATHER CONDITIONS ARE NOT AVAILABLE.

MNZ060>063-068>070-021400-
   Twin Cities Metro

CITY           SKY/WX    TMP DP  RH WIND       PRES   REMARKS
TWIN CITIES    MOSUNNY   73  63  70 SW8       29.66F
ST PAUL        MOSUNNY   73  64  73 S5        29.66F
CRYSTAL        SUNNY     74  65  73 S8        29.63F
BLAINE         MOSUNNY   73  66  78 S9        29.64F
LAKEVILLE      SUNNY     72  64  78 CALM      29.68S
EDEN PRAIRIE   SUNNY     72  64  76 S6        29.65F
SOUTH ST PAUL  MOSUNNY   74  63  68 S5        29.66F
LAKE ELMO      FAIR      72  64  78 SW10      29.67F
$$
MNZ001>005-007-008-013>017-022>024-027-028-021400-
   Northwest Minnesota

CITY           SKY/WX    TMP DP  RH WIND       PRES   REMARKS
BEMIDJI        PTSUNNY   63  60  88 NW8       29.67R
HALLOCK        SUNNY     63  59  88 N7        29.74R
ROSEAU         PTSUNNY   61  55  82 NW8       29.71R
WARROAD        MOSUNNY   63  59  88 NW9       29.71R
THIEF RVR FALL PTSUNNY   64  59  82 N9        29.73R
CROOKSTON      PTSUNNY   63  61  94 N12       29.74R
FOSSTON        PTSUNNY   63  57  82 NW8       29.71R
DETROIT LAKES  PTSUNNY   63  59  88 CALM      29.72R
MOORHEAD       MOSUNNY   66  63  88 N9        29.73R
PARK RAPIDS    PTSUNNY   66  59  78 E8        29.66S
MAHNOMEN       CLOUDY    62  60  93 NW6       29.70R
$$
MNZ006-009>011-018-025>026-021400-
   North Central Minnesota

CITY           SKY/WX    TMP DP  RH WIND       PRES   REMARKS
BAUDETTE       PTSUNNY   66  58  75 CALM      29.67S
FLAG ISLAND    PTSUNNY   63  59  88 NW13      29.68R
INTL FALLS     PTSUNNY   63  61  93 NW7       29.65S
WASKISH        PTSUNNY   63  61  94 N6        29.68R
BIG FORK       CLOUDY    63  59  88 N6        29.64R
LONGVILLE      PTSUNNY   61  61 100 SE3       29.64F
GRAND RAPIDS   CLOUDY    64  55  72 W8        29.68R
CRANE LAKE     CLOUDY    59  59 100 VRB1      29.65F
ORR            CLOUDY    61  57  88 CALM      29.62F
COOK           CLOUDY    61  57  88 CALM      29.63F
WALKER         FAIR      60  58  92 NW3       29.66S THUNDER
$$
MNZ012-019>021-037-021400-
   Northeast Minnesota

CITY           SKY/WX    TMP DP  RH WIND       PRES   REMARKS
DULUTH         PTSUNNY   66  57  72 NW5       29.66F
ELY            CLOUDY    61  57  88 CALM      29.64F
HIBBING        LGT RAIN  60  58  92 S5        29.61F
EVELETH        RAIN      63  55  77 N7        29.63F
DULUTH HARBOR  PTSUNNY   70  61  73 CALM      29.64S
TWO HARBORS    CLOUDY    66  61  82 SW5       29.63R
SILVER BAY     LGT RAIN  68  54  60 NW13G23   29.57F
GRAND MARAIS     N/A     56  52  86 VRB6      29.60R
G MARAIS ARPRT CLOUDY    59  54  82 NW5       29.64R
$$
MNZ029>031-032-039>041-046>048-054>057-064-021400-
   West Central Minnesota

CITY           SKY/WX    TMP DP  RH WIND       PRES   REMARKS
FERGUS FALLS   MOSUNNY   66  66 100 NE7       29.66R
WHEATON        SUNNY     66  61  82 W17G25    29.68R
MORRIS         SUNNY     70  61  73 W16G22    29.63R
ALEXANDRIA     SUNNY     69  64  84 CALM      29.64R
ELBOW LAKE     FAIR      65  61  86 NW13G18   29.64R
WADENA         TSTM      64  63  94 NE8       29.66R
GLENWOOD       SUNNY     70  63  78 W13G20    29.63S
APPLETON       SUNNY     72  63  73 W10       29.64R
BENSON         SUNNY     70  63  78 NW6       29.64R
ORTONVILLE     SUNNY     73  57  56 W13G21    29.66R
MADISON        SUNNY     73  61  64 W10       29.66S
WILLMAR        FAIR      70  64  83 W10       29.65S
$$
MNZ033>034-036-042>043-049>051-058-059-021400-
   Central Minnesota

CITY           SKY/WX    TMP DP  RH WIND       PRES   REMARKS
ST CLOUD       SUNNY     70  65  84 VRB3      29.63S
SAUK CENTRE    FAIR      66  64  93 CALM      29.64R
PAYNESVILLE    SUNNY     67  64  90 S3        29.63R
AITKIN         PTSUNNY   66  61  82 CALM      29.64F
PINE RIVER     MOSUNNY   64  61  88 CALM      29.71S
BRAINERD       CLOUDY    68  63  84 E6        29.65S
STAPLES        CLOUDY    66  64  94 NE5       29.65R
LONG PRAIRIE   FAIR      66  63  88 CALM      29.65R
LITTLE FALLS   SUNNY     68  63  83 E3        29.62F
LITCHFIELD     SUNNY     70  66  88 W5        29.64S
BUFFALO        SUNNY     69  64  82 S3        29.64F
MAPLE LAKE     SUNNY     70  66  88 CALM      29.63F
$$
MNZ037-044-045-052-053-021400-
   East Central Minnesota

CITY           SKY/WX    TMP DP  RH WIND       PRES   REMARKS
PRINCETON      SUNNY     72  66  83 CALM      29.62F
MORA           MOSUNNY   64  63  94 E5        29.65F
CAMBRIDGE      SUNNY     73  63  68 S6        29.61F
RUSH CITY      SUNNY     70  65  85 SE3       29.65S
MOOSE LAKE     CLOUDY    64  61  88 CALM      29.65R
HINCKLEY       CLOUDY    66  64  94 CALM      29.65F
CLOQUET        PTSUNNY   64  57  77 CALM      29.65F
MCGREGOR       PTSUNNY   64  61  88 SE3       29.65F
$$
MNZ071>073-080-081-089-090-097-098-021400-
   Southwest Minnesota

CITY           SKY/WX    TMP DP  RH WIND       PRES   REMARKS
MONTEVIDEO     SUNNY     73  66  78 NW7       29.66S
GRANITE FALLS  SUNNY     71  62  74 W9        29.67R
CANBY          SUNNY     74  60  60 W18       29.68S
MARSHALL       SUNNY     75  57  53 W17G25    29.69S
REDWOOD FALLS  SUNNY     71  62  73 SW9       29.65F
OLIVIA         SUNNY     68  61  77 SW8       29.65S
PIPESTONE      SUNNY     66  63  88 SW7       29.77S
WINDOM         SUNNY     70  64  83 SW14G20   29.74S
WORTHINGTON    SUNNY     70  63  78 SW16      29.76F
JACKSON        SUNNY     72  68  88 SW13G18   29.76F
TRACY          SUNNY     72  63  73 W16       29.71S
SLAYTON        SUNNY     70  62  76 SW12      29.75S
$$
MNZ065>067-074>077-082>085-091>093-021400-
   South Central Minnesota

CITY           SKY/WX    TMP DP  RH WIND       PRES   REMARKS
MANKATO        SUNNY     72  63  73 SW15      29.69F
NEW ULM        SUNNY     70  63  78 SW9       29.68F
ST JAMES       SUNNY     73  66  78 SW12G17   29.72S
FAIRMONT       SUNNY     73  64  73 SW15      29.74S
GLENCOE        SUNNY     70  66  87 S9        29.65S
FARIBAULT      SUNNY     72  66  83 S7        29.70F
OWATONNA       SUNNY     73  66  78 SW14      29.72F
WASECA         SUNNY     72  68  88 SW13G18   29.73F
ALBERT LEA     SUNNY     73  66  78 SW10G18   29.75S
$$
MNZ078>079-086>088-094>096-021400-
   Southeast Minnesota

CITY           SKY/WX    TMP DP  RH WIND       PRES   REMARKS
ROCHESTER      SUNNY     72  68  87 SW13G22   29.75R
RED WING       SUNNY     75  64  69 W5        29.67F
STANTON        SUNNY     72  65  79 SW9       29.68F
DODGE CENTER   SUNNY     73  68  83 SW15      29.73F
WINONA         MOSUNNY   77  68  73 W5G16     29.72R
AUSTIN         SUNNY     73  68  83 SW8       29.75S
PRESTON        SUNNY     71  66  83 SW14      29.76R
$$
ABBREVIATIONS USED IN REMARKS
   TC - TEMPERATURES IN CELSIUS
  WCI - WIND CHILL INDEX
   HX - HEAT INDEX
  VSB - VISIBILITY
$$


USA.gov is the U.S. government's official web portal to all federal, state and local government web resources and services.